Yaogan 30 hao 06 zu 01 xing

operational
NORAD ID: 45460 Int'l Des: 2020-021 Owner: ZLZB Country: CN Constellation: yaogan
LEOCIRCULAR

About Yaogan 30 hao 06 zu 01 xing

Description loading...

Live Position

Loading 3D Globe...

Upcoming Passes

Altitude History

Altitude vs Time

uPlot chart will show altitude changes over time

Two-Line Element Set

1 45460U 20021A 26047.55150134 .00003463 00000-0 26156-3 0 9996
2 45460 34.9929 225.7928 0003220 30.0390 330.0502 15.01929840322407
Epoch: Feb 16, 2026 • Age: 5 hours

Current Status

Altitude 559.2 km
Velocity 7.59 km/s
Sub-Earth Point 32.08°N, 134.1°W
Launch Date Mar 24, 2020
Age 5.9 years
Type military

Technical Details

Classification Payload
Mass 500.00 kg
Dry Mass 500.00 kg
Total Mass 500.00 kg
Length 0.50 m
Diameter 0.50 m
Span 1.00 m
Shape Box + 2 Pan
Manufacturer SECM
Phase Status In Orbit
Owner/State ZLZB/CN

Large Constellations

Loading constellations...